EW4806 Weather Reports


Display with metric or nautical units.
time (UTC)temp
F
wind
direction
speed
MPH
gust
MPH
rain 1hr
in
rain 24hr
in
rain mn
in
humidity
%
barometer
mb
20260510175523 65 276 1.0 7.0 0.00 0.00 0.00 46 1018.0
20260510174717 65 295 0.0 4.0 0.00 0.00 0.00 48 1018.1
20260510172523 64 252 0.0 5.0 0.00 0.00 0.00 49 1018.0
20260510171022 64 253 0.0 3.0 0.00 0.00 0.00 50 1018.1
20260510170215 63 251 0.0 6.0 0.00 0.00 0.00 53 1017.9
20260510164022 62 242 0.0 3.0 0.00 0.00 0.00 53 1018.0
20260510162519 61 222 0.0 4.0 0.00 0.00 0.00 55 1018.1
20260510161019 61 262 0.0 1.0 0.00 0.00 0.00 56 1018.1
20260510155519 60 293 0.0 4.0 0.00 0.00 0.00 57 1018.1
20260510154016 60 296 0.0 1.0 0.00 0.00 0.00 60 1017.8
20260510152517 59 286 0.0 4.0 0.00 0.00 0.00 60 1017.7
20260510151014 59 243 0.0 0.0 0.00 0.00 0.00 60 1017.6
20260510145512 59 285 0.0 2.0 0.00 0.00 0.00 61 1017.5
20260510144013 59 291 0.0 3.0 0.00 0.00 0.00 61 1017.3
20260510142512 59 277 0.0 0.0 0.00 0.00 0.00 61 1017.2
20260510141012 58 262 0.0 4.0 0.00 0.00 0.00 64 1017.1
20260510135512 57 241 0.0 4.0 0.00 0.00 0.00 65 1016.9
20260510134013 56 201 0.0 0.0 0.00 0.00 0.00 71 1016.7
20260510132513 54 254 0.0 0.0 0.00 0.00 0.00 76 1016.7
20260510131013 54 295 0.0 0.0 0.00 0.00 0.00 78 1016.5
20260510125510 55 295 0.0 0.0 0.00 0.00 0.00 78 1016.5
20260510124010 55 295 0.0 0.0 0.00 0.00 0.00 77 1016.5
20260510123220 55 295 0.0 0.0 0.00 0.00 0.00 76 1016.3
20260510121006 56 295 0.0 0.0 0.00 0.00 0.00 75 1016.1
20260510115508 56 295 0.0 0.0 0.00 0.00 0.00 75 1016.1
20260510114007 57 295 0.0 0.0 0.00 0.00 0.00 74 1016.1
20260510112504 57 295 0.0 0.0 0.00 0.00 0.00 73 1016.2
20260510111003 58 295 0.0 0.0 0.00 0.00 0.00 71 1016.0
20260510105500 58 261 0.0 0.0 0.00 0.00 0.00 71 1015.8
20260510103958 59 260 0.0 0.0 0.00 0.00 0.00 69 1015.7
20260510102459 60 260 0.0 0.0 0.00 0.00 0.00 67 1015.6
20260510101654 61 260 0.0 0.0 0.00 0.00 0.00 65 1015.4
20260510095454 62 260 0.0 0.0 0.00 0.00 0.00 63 1015.6
20260510093955 62 260 0.0 0.0 0.00 0.00 0.00 61 1015.5
20260510092454 64 266 0.0 0.0 0.00 0.00 0.00 58 1015.4
20260510090955 64 274 0.0 0.0 0.00 0.00 0.00 56 1015.3
20260510090200 65 255 0.0 0.0 0.00 0.00 0.00 56 1015.4
20260510083954 64 221 0.0 0.0 0.00 0.00 0.00 59 1015.5
20260510082456 64 180 0.0 0.0 0.00 0.00 0.00 59 1015.6
20260510080954 63 174 0.0 0.0 0.00 0.00 0.00 61 1015.6
20260510075454 63 173 0.0 0.0 0.00 0.00 0.00 60 1015.5
20260510073955 65 173 0.0 0.0 0.00 0.00 0.00 57 1015.5
20260510073150 65 173 0.0 1.0 0.00 0.00 0.00 56 1015.4
20260510070950 65 173 0.0 0.0 0.00 0.00 0.00 56 1015.1
20260510065443 66 173 0.0 0.0 0.00 0.00 0.00 56 1014.8
20260510064638 66 172 0.0 0.0 0.00 0.00 0.00 55 1014.9
20260510062443 67 172 0.0 0.0 0.00 0.00 0.00 56 1014.9
20260510060943 68 275 0.0 0.0 0.00 0.00 0.00 55 1014.9
20260510060836 69 275 0.0 0.0 0.00 0.00 0.00 52 1015.0
20260510053942 71 274 0.0 0.0 0.00 0.00 0.00 50 1014.9
20260510053129 72 327 0.0 0.0 0.00 0.00 0.00 48 1015.0
20260510050936 73 327 0.0 0.0 0.00 0.00 0.00 45 1014.8
20260510045437 74 332 0.0 2.0 0.00 0.00 0.00 43 1014.6
20260510044624 75 296 0.0 2.0 0.00 0.00 0.00 42 1014.6
20260510043047 77 265 0.0 2.0 0.00 0.00 0.00 39 1014.0
20260510042501 76 268 0.0 7.0 0.00 0.00 0.00 41 1014.3
20260510035433 78 265 0.0 9.0 0.00 0.00 0.00 37 1013.6
20260510033933 78 190 1.0 4.0 0.00 0.00 0.00 37 1013.4
20260510032432 79 214 1.0 3.0 0.00 0.00 0.00 35 1013.2
20260510031630 81 274 0.0 3.0 0.00 0.00 0.00 32 1012.9
20260510025432 82 285 1.0 3.0 0.00 0.00 0.00 31 1012.7
20260510023934 83 284 1.0 2.0 0.00 0.00 0.00 30 1012.5
20260510023125 83 324 1.0 8.0 0.00 0.00 0.00 28 1012.4
20260510020934 85 324 1.0 11.0 0.00 0.00 0.00 26 1012.3
20260510020135 87 285 0.0 2.0 0.00 0.00 0.00 17 1012.1
20260510013933 88 245 0.0 0.0 0.00 0.00 0.00 15 1012.1
20260510012432 88 259 0.0 0.0 0.00 0.00 0.00 16 1012.1
20260510010932 88 272 0.0 0.0 0.00 0.00 0.00 16 1012.3
20260510005432 88 343 0.0 0.0 0.00 0.00 0.00 16 1012.3
20260510003930 88 291 0.0 0.0 0.00 0.00 0.00 14 1012.4
20260510002428 88 359 0.0 1.0 0.00 0.00 0.00 15 1012.5
20260510001629 87 280 0.0 0.0 0.00 0.00 0.00 13 1012.6
20260509235428 87 268 0.0 0.0 0.00 0.00 0.00 15 1012.6
20260509233928 87 277 0.0 0.0 0.00 0.00 0.00 15 1012.7
20260509232426 87 296 0.0 0.0 0.00 0.00 0.00 15 1012.8
20260509230924 86 245 0.0 1.0 0.00 0.00 0.00 16 1013.0
20260509225422 86 183 0.0 3.0 0.00 0.00 0.00 16 1013.1
20260509224624 85 218 0.0 2.0 0.00 0.00 0.00 15 1013.4
20260509222422 85 260 0.0 1.0 0.00 0.00 0.00 19 1013.9
20260509220921 84 241 0.0 4.0 0.00 0.00 0.00 23 1014.1
20260509220117 84 337 0.0 0.0 0.00 0.00 0.00 23 1014.2
20260509213921 82 268 0.0 3.0 0.00 0.00 0.00 23 1014.5
20260509213823 82 289 0.0 0.0 0.00 0.00 0.00 25 1014.7
20260509211612 81 241 0.0 0.0 0.00 0.00 0.00 27 1014.9
20260509210124 80 255 0.0 3.0 0.00 0.00 0.00 30 1015.1
20260509203920 79 270 0.0 0.0 0.00 0.00 0.00 33 1015.2
20260509202421 77 152 0.0 0.0 0.00 0.00 0.00 32 1015.5
20260509200920 76 333 0.0 0.0 0.00 0.00 0.00 35 1015.7
20260509195418 76 272 0.0 1.0 0.00 0.00 0.00 37 1015.9
20260509193916 75 280 0.0 2.0 0.00 0.00 0.00 36 1016.2
20260509193103 74 226 0.0 1.0 0.00 0.00 0.00 37 1016.5
20260509190916 73 331 0.0 1.0 0.00 0.00 0.00 37 1016.7
20260509185415 71 70 0.0 1.0 0.00 0.00 0.00 39 1016.9
20260509183914 70 328 0.0 1.0 0.00 0.00 0.00 40 1017.2
20260509182413 70 180 0.0 2.0 0.00 0.00 0.00 41 1017.2